Wind_Speed
1 1 2 2 2 3 3 4 4 5 5 6 5 6 6 5 5 5 5 4 5 5 5 5 4 4 4 4 4 4 5 6 6 6 6 6 6 6 7 8 7 7 7
2 1 2 3 3 3 4 5 5 5 6 6 6 6 6 5 5 5 5 5 5 5 6 5 5 4 4 4 4 4 4 5 6 6 7 7 7 7 8 8 8 7 7
2 2 3 3 3 3 4 5 6 6 6 6 6 6 6 6 6 6 6 6 6 6 6 6 5 5 5 4 5 5 5 5 6 7 7 8 8 8 8 8 8 8 8
2 3 3 3 3 4 5 6 7 7 7 7 7 7 7 7 7 7 7 7 7 7 7 6 6 5 5 5 5 5 6 6 7 8 8 8 8 9 9 9 9 9 9
3 3 3 3 4 5 6 6 7 7 7 7 7 7 8 8 8 9 9 9 8 8 7 7 7 6 5 5 5 6 6 7 7 8 8 9 9 9 10 10 10 10 9
4 4 3 3 4 5 6 7 8 8 8 8 8 8 9 9 9 9 9 9 9 9 8 8 8 7 6 6 6 6 6 7 8 8 9 9 9 10 10 11 11 11 10
3 3 3 4 5 6 6 7 7 8 9 9 9 9 9 9 9 10 10 10 9 9 9 8 8 8 7 7 7 7 7 8 8 8 9 9 10 10 10 12 12 12 11
3 2 3 4 4 5 6 7 8 9 9 9 9 9 9 9 10 10 10 9 9 10 10 9 9 9 8 8 8 8 8 8 8 9 9 9 10 11 11 11 13 13 13
2 2 3 4 5 6 7 7 8 9 10 10 10 10 10 10 10 10 10 10 10 10 10 10 9 9 9 8 8 8 8 9 9 10 9 10 11 11 11 12 13 14 14
3 3 4 4 5 6 7 8 9 9 10 10 10 10 10 10 10 10 10 11 11 11 11 10 10 9 9 9 9 9 9 10 10 11 10 10 11 12 12 12 13 14 14
3 3 4 4 5 6 7 8 9 10 10 10 10 10 10 10 10 10 11 11 12 11 11 10 9 9 9 9 9 9 10 10 11 12 12 12 12 12 13 13 14 14 15
3 3 3 4 5 6 7 8 9 9 9 10 10 10 10 10 10 11 11 12 11 11 10 10 9 9 9 9 9 9 10 11 12 12 13 13 13 13 14 14 15 14 14
2 3 4 4 5 7 8 9 9 9 9 9 9 10 10 11 11 11 11 11 11 10 10 10 9 9 9 10 10 10 10 11 11 12 13 13 14 14 14 14 15 15 14
2 3 4 5 6 7 7 8 8 9 9 9 9 10 10 11 11 11 11 11 11 10 10 9 9 9 9 10 10 10 10 11 11 12 13 14 14 15 15 15 16 15 15
3 4 4 5 6 6 6 7 8 8 9 9 10 10 11 12 11 11 11 11 10 10 10 9 9 9 9 9 10 10 10 10 11 12 13 13 14 15 16 16 16 16 16
3 3 4 5 5 5 6 7 8 8 9 10 10 11 11 11 11 10 10 10 10 10 10 9 9 9 9 9 9 10 9 10 11 11 12 13 14 15 15 17 18 17 17
3 3 4 4 4 5 6 6 7 8 9 10 10 11 11 10 10 10 10 10 10 9 9 8 7 7 7 8 8 8 8 8 9 10 12 13 14 15 16 16 18 18 18
3 3 3 3 3 4 5 6 7 8 9 10 10 11 11 10 10 10 10 11 10 10 9 8 8 7 6 6 5 5 5 6 7 9 10 12 14 15 16 16 17 18 18
3 1 1 2 3 4 4 5 7 8 9 10 10 11 11 11 11 11 11 11 10 10 10 9 8 7 6 5 4 3 3 4 6 8 9 11 12 14 15 16 17 18 19
2 1 0 1 2 3 4 5 6 7 9 9 10 11 11 12 12 12 12 12 11 11 10 9 9 7 6 5 4 2 2 3 4 6 8 10 11 13 14 15 16 18 19
2 2 1 1 1 2 3 5 6 7 8 10 10 11 12 12 13 13 13 13 12 11 11 10 10 9 7 6 4 3 2 1 3 5 7 8 10 12 13 14 15 17 18
3 2 2 2 2 3 4 5 6 7 8 10 11 11 12 12 13 14 14 13 13 12 12 12 11 10 9 7 6 5 4 2 2 3 5 7 8 10 12 13 14 17 18
4 4 3 3 3 4 4 5 6 7 8 9 11 12 13 13 14 14 15 15 15 14 14 13 12 11 10 9 8 7 6 5 4 3 4 5 6 8 10 12 13 15 17
6 5 4 4 4 4 5 5 6 7 8 9 11 12 13 13 14 15 15 16 16 16 16 15 14 13 12 11 9 8 7 6 5 4 3 4 5 6 8 10 12 14 16
7 6 5 5 4 4 4 5 6 7 8 9 10 11 12 14 15 15 16 16 17 17 17 17 16 15 13 13 12 10 9 8 7 5 4 3 3 5 7 9 11 13 15
8 7 6 5 5 4 4 4 5 6 7 8 10 11 12 13 14 15 16 16 16 17 17 17 17 16 15 14 13 12 11 9 8 6 4 3 2 3 5 7 9 11 13
Wind_Direction
224 303 328 323 323 327 322 317 319 316 312 313 315 321 322 323 320 323 326 326 328 330 330 327 320 309 295 277 270 260 251 245 239 234 231 228 228 224 218 216 213 213 209
244 290 319 304 307 310 312 317 315 311 309 310 313 314 314 314 310 311 310 311 316 321 321 320 316 305 291 274 266 259 255 250 243 233 230 229 227 223 218 218 217 215 210
259 296 307 301 302 302 312 312 312 311 309 306 308 311 311 310 309 308 306 309 311 315 317 314 311 302 288 277 266 261 255 254 246 236 230 229 226 222 220 218 215 217 213
271 290 298 302 309 306 310 310 308 309 311 314 315 319 317 315 312 311 309 309 310 310 312 309 305 298 286 276 270 264 257 251 243 238 232 228 225 222 221 217 212 214 213
280 292 295 302 305 305 309 314 316 321 323 322 320 319 317 318 317 315 312 311 309 308 309 306 301 296 285 273 269 264 254 247 241 237 233 227 224 222 222 218 214 212 209
281 288 292 299 307 311 315 316 318 323 323 321 319 316 314 312 312 312 312 311 311 310 306 303 298 292 284 272 266 262 252 245 241 236 234 230 226 224 223 218 214 211 207
279 287 297 303 310 313 312 314 320 324 325 324 323 319 316 313 311 311 312 312 312 311 307 301 295 290 283 272 264 260 251 244 241 237 234 231 228 226 224 218 214 210 207
284 291 296 300 305 311 314 319 323 324 326 325 324 324 320 316 314 314 314 313 312 310 307 301 293 288 282 274 267 262 251 246 243 239 235 233 229 226 222 217 214 210 206
288 292 293 295 302 309 316 321 324 325 325 325 326 325 322 319 319 319 317 313 312 310 306 301 295 290 283 277 268 260 253 248 243 240 237 234 229 223 220 216 212 209 206
282 287 291 295 301 309 318 324 326 327 326 326 326 325 323 322 322 322 320 316 313 309 305 302 296 290 285 278 270 260 253 246 241 240 238 235 229 222 220 216 211 208 205
292 297 299 299 303 312 321 327 329 328 327 326 325 326 324 323 323 322 320 317 313 308 305 302 297 290 284 277 270 261 254 248 243 240 238 233 228 224 221 215 208 205 203
298 308 316 316 314 320 326 331 332 330 328 329 331 331 330 328 325 322 321 318 314 309 305 302 297 289 283 278 271 264 258 253 246 240 235 229 226 224 219 215 208 206 204
299 310 321 325 326 327 329 332 335 335 335 335 336 337 336 332 327 324 322 320 317 312 308 305 299 291 285 279 274 267 262 256 248 242 234 228 224 221 215 213 208 207 205
307 318 328 332 330 330 332 335 339 340 340 342 341 339 337 334 331 328 326 327 325 319 314 310 304 297 290 283 277 270 265 258 248 242 233 226 222 218 214 213 210 207 205
306 318 330 333 334 334 336 341 346 348 348 348 345 341 338 336 335 335 335 334 332 327 320 313 305 300 295 288 280 272 266 259 249 240 229 224 221 217 214 212 208 208 206
305 322 333 338 343 341 343 350 353 353 353 350 347 344 342 340 341 342 344 343 339 333 326 319 311 303 299 294 285 276 266 257 246 236 227 222 218 215 214 212 209 208 207
295 309 326 339 345 349 354 358 358 357 355 353 352 351 352 353 354 354 354 353 350 347 343 336 326 318 311 304 292 280 265 253 242 231 225 219 215 214 213 212 208 208 208
285 299 319 337 347 359 4 4 2 1 1 0 1 4 6 6 6 4 2 1 1 358 354 352 344 337 330 319 307 290 266 248 234 224 221 216 212 213 213 212 209 209 208
272 276 308 343 356 7 12 11 10 9 8 8 11 15 17 16 15 12 10 9 9 6 4 2 356 353 349 343 331 308 269 244 227 218 215 212 211 212 213 212 211 209 208
229 223 264 0 18 27 24 18 16 15 17 20 21 22 24 23 22 20 18 15 15 15 14 15 12 9 7 5 0 344 292 242 222 214 209 207 209 210 212 212 209 208 208
207 192 159 85 63 51 33 29 28 28 28 29 30 29 30 29 26 24 23 22 23 24 25 26 25 24 22 23 27 31 32 230 208 206 205 206 208 206 208 208 208 207 208
192 173 150 127 100 78 57 49 46 43 38 37 34 35 34 33 31 30 30 30 32 33 32 33 32 34 35 38 48 57 63 78 146 181 190 197 202 204 207 208 208 206 207
184 174 158 135 110 90 75 65 57 50 46 43 41 41 40 40 39 38 38 38 39 39 39 40 41 43 43 47 54 60 64 71 88 137 175 189 197 203 207 207 205 206 208
186 178 165 144 125 107 90 78 68 59 52 48 46 45 43 43 42 41 42 43 43 44 44 45 46 49 50 52 53 55 59 65 77 95 140 174 189 201 204 204 207 207 209
188 182 172 157 141 122 103 90 76 62 56 53 51 50 47 46 46 45 44 45 46 46 48 49 50 51 53 54 55 57 59 61 68 73 94 138 169 191 202 207 208 209 212
190 185 177 171 159 139 116 98 81 66 59 56 54 52 49 48 49 47 46 47 48 48 48 48 49 50 52 52 53 55 58 59 61 64 74 101 142 182 205 210 213 216 219
Height
5896 5895 5895 5894 5894 5893 5893 5892 5892 5891 5890 5890 5889 5888 5887 5886 5886 5885 5884 5883 5883 5882 5882 5881 5880 5880 5880 5880 5879 5879 5880 5880 5880 5880 5881 5881 5882 5882 5882 5883 5883 5884 5884
5895 5895 5894 5894 5893 5893 5893 5892 5891 5891 5890 5889 5888 5887 5886 5885 5885 5884 5883 5882 5882 5881 5880 5880 5879 5879 5878 5878 5878 5878 5878 5878 5878 5879 5879 5880 5880 5881 5881 5882 5882 5883 5883
5895 5894 5894 5893 5893 5892 5892 5891 5891 5890 5889 5888 5887 5886 5885 5884 5884 5883 5882 5881 5880 5880 5879 5879 5878 5878 5877 5877 5877 5877 5877 5877 5877 5877 5878 5878 5879 5879 5880 5880 5881 5882 5882
5894 5893 5893 5893 5892 5892 5891 5891 5890 5889 5888 5887 5886 5885 5884 5883 5882 5882 5881 5880 5879 5878 5878 5877 5877 5876 5876 5876 5875 5875 5875 5875 5875 5876 5876 5876 5877 5878 5878 5879 5880 5881 5881
5893 5892 5892 5892 5892 5891 5891 5890 5889 5888 5887 5886 5885 5884 5883 5882 5881 5880 5879 5879 5878 5877 5876 5876 5875 5875 5874 5874 5874 5873 5873 5873 5873 5874 5874 5875 5875 5876 5877 5878 5879 5880 5880
5892 5892 5892 5891 5891 5890 5890 5889 5888 5887 5886 5885 5884 5883 5882 5881 5880 5879 5878 5877 5876 5875 5875 5874 5873 5873 5872 5872 5872 5872 5872 5872 5872 5872 5873 5873 5874 5874 5875 5876 5877 5878 5879
5891 5891 5891 5891 5890 5890 5889 5888 5887 5886 5885 5884 5882 5881 5880 5879 5878 5877 5877 5875 5874 5874 5873 5872 5872 5871 5871 5870 5870 5870 5870 5870 5870 5870 5871 5871 5872 5873 5874 5875 5876 5877 5878
5890 5890 5890 5890 5890 5889 5889 5888 5887 5885 5884 5883 5881 5880 5879 5878 5877 5876 5875 5874 5873 5872 5871 5870 5869 5869 5868 5868 5868 5868 5868 5868 5868 5868 5869 5870 5870 5871 5872 5873 5874 5875 5877
5890 5889 5889 5889 5889 5888 5888 5887 5886 5884 5883 5882 5880 5879 5878 5877 5875 5874 5873 5872 5871 5870 5869 5868 5867 5867 5866 5866 5866 5866 5866 5866 5866 5866 5867 5868 5868 5869 5870 5871 5873 5874 5875
5889 5889 5889 5888 5888 5888 5887 5886 5885 5883 5882 5880 5879 5878 5876 5875 5874 5872 5871 5870 5869 5867 5866 5866 5865 5864 5864 5864 5863 5863 5864 5864 5864 5864 5865 5866 5866 5867 5868 5869 5871 5873 5874
5889 5888 5888 5888 5887 5887 5886 5885 5883 5882 5881 5879 5878 5877 5875 5874 5872 5871 5869 5868 5867 5865 5864 5863 5863 5862 5861 5861 5861 5861 5861 5861 5861 5862 5863 5863 5864 5866 5867 5868 5870 5871 5873
5888 5888 5888 5887 5887 5886 5885 5884 5883 5881 5880 5878 5877 5875 5874 5872 5870 5869 5867 5866 5864 5863 5862 5861 5860 5859 5859 5858 5858 5858 5858 5858 5859 5859 5860 5861 5862 5864 5865 5866 5868 5870 5872
5888 5888 5887 5887 5886 5885 5884 5883 5882 5880 5879 5877 5875 5874 5872 5871 5869 5867 5865 5864 5862 5861 5860 5859 5858 5857 5856 5856 5855 5855 5855 5855 5856 5856 5857 5858 5860 5861 5863 5865 5867 5868 5870
5887 5887 5887 5886 5885 5884 5884 5882 5881 5879 5878 5876 5874 5873 5871 5869 5867 5865 5863 5861 5860 5859 5857 5856 5855 5854 5854 5853 5853 5852 5852 5852 5853 5853 5854 5856 5857 5859 5861 5863 5865 5867 5869
5887 5886 5886 5885 5884 5884 5883 5882 5880 5879 5877 5875 5873 5872 5870 5868 5866 5863 5861 5860 5858 5856 5855 5854 5853 5852 5851 5850 5850 5849 5850 5849 5850 5850 5852 5853 5855 5856 5859 5861 5863 5865 5868
5886 5886 5885 5885 5884 5883 5882 5881 5880 5878 5876 5875 5873 5871 5868 5866 5864 5862 5860 5858 5856 5854 5853 5851 5850 5849 5848 5848 5847 5846 5846 5846 5847 5847 5849 5850 5852 5854 5857 5859 5861 5864 5866
5885 5885 5885 5884 5884 5883 5882 5881 5879 5878 5876 5874 5872 5870 5867 5865 5863 5861 5859 5857 5855 5852 5851 5849 5848 5847 5846 5845 5844 5844 5844 5844 5844 5845 5846 5848 5850 5852 5854 5857 5859 5862 5865
5885 5885 5884 5884 5883 5883 5882 5881 5879 5878 5876 5874 5872 5869 5867 5865 5862 5860 5858 5856 5854 5851 5850 5848 5846 5845 5844 5843 5842 5841 5841 5841 5842 5843 5844 5846 5848 5850 5852 5855 5858 5860 5863
5884 5884 5884 5884 5883 5883 5882 5881 5879 5878 5876 5874 5872 5869 5867 5865 5862 5860 5858 5855 5853 5851 5849 5847 5845 5844 5842 5841 5840 5840 5840 5840 5840 5841 5842 5844 5846 5848 5850 5853 5856 5859 5862
5884 5884 5884 5883 5883 5883 5882 5881 5879 5878 5876 5874 5872 5870 5867 5865 5862 5860 5858 5855 5853 5851 5848 5846 5844 5842 5841 5840 5839 5839 5838 5839 5839 5840 5841 5842 5844 5846 5849 5851 5854 5857 5860
5883 5884 5884 5883 5883 5883 5882 5881 5880 5878 5877 5875 5872 5870 5868 5865 5863 5861 5858 5855 5853 5851 5848 5846 5844 5842 5841 5840 5839 5839 5838 5838 5838 5839 5840 5841 5843 5845 5847 5850 5852 5855 5858
5883 5884 5884 5883 5883 5883 5882 5881 5880 5879 5877 5875 5873 5871 5869 5866 5864 5861 5859 5856 5854 5851 5849 5847 5845 5843 5841 5840 5839 5839 5838 5839 5838 5839 5840 5841 5842 5844 5846 5848 5851 5853 5856
5883 5883 5884 5884 5883 5883 5882 5882 5881 5879 5878 5876 5874 5872 5870 5868 5865 5863 5860 5858 5855 5852 5850 5848 5846 5844 5843 5842 5840 5840 5839 5839 5839 5839 5840 5841 5842 5843 5845 5847 5850 5852 5855
5882 5883 5883 5884 5884 5883 5883 5882 5881 5880 5879 5877 5875 5874 5871 5869 5867 5864 5862 5859 5857 5854 5852 5850 5848 5846 5845 5843 5842 5841 5841 5840 5840 5840 5841 5841 5842 5843 5845 5847 5849 5851 5853
5882 5882 5883 5884 5884 5884 5883 5883 5882 5881 5880 5878 5877 5875 5873 5871 5869 5866 5864 5862 5859 5857 5855 5852 5850 5848 5847 5845 5844 5843 5842 5842 5841 5841 5841 5842 5843 5844 5845 5846 5848 5850 5852
5881 5882 5883 5883 5884 5884 5884 5883 5883 5882 5881 5879 5878 5876 5875 5873 5871 5868 5866 5864 5862 5860 5857 5855 5853 5851 5849 5848 5846 5845 5844 5843 5843 5842 5842 5842 5843 5844 5845 5846 5847 5849 5851